COSMOS 1261 DEB, 12893

Orbit data source: Space-Track

COSMOS 1261 DEB, 12893 is space debris originally from a launch on Tue, 31 Mar 1981 UTC launched from the Plesetsk Missile And Space Complex (PKMTR). Debris objects in space refer to the collection of defunct objects orbiting the Earth. Examples of debris include non-operational satellites, rocket bodies, and fragments generated from explosions, collisions, or faulty payload assembly.

Loading next visibility...
Identifier
12893, 1981-031F
Orbit
Molniya
Country
Flag of CISCIS
Related business
Manufacturer
Unknown
Mission
Spacecraft
Bus & Motor
Unknown
Mass
Unknown
Launch date (UTC)
1981-03-31 (44 years ago)
Launch vehicle
Unknown
Launch site
Plesetsk Missile And Space Complex (PKMTR)
Object type
Payload
Rocket body
Debris
Shape & HBR
Unknown
Radar Cross Section
Medium (>0.1 m² and <1 m²)

Expand to show TLE details & history
Last TLE update: 2 days ago

TLE from 2 days ago
0 COSMOS 1261 DEB
1 12893U 81031F   25257.47789865  .00001138  00000-0  00000-0 0  9994
2 12893  64.7833  19.4586 7092964  27.8632 356.3846  2.01141523306568
Epoch: 2025-09-14T11:28Z
TLE epoch observation values (Epoch: 2025-09-14T11:28:10.443Z)
Latitude
-0.00007°
Longitude
-146.28676°
Altitude
1,717.995 km
Speed
9.135 km/s
True Right ascension
01h 17m 48s
True Declination
0° 00' 00"
Sunlit
Object was in full shadow at epoch
Visualization orbit readout
Latitude
Unknown
Longitude
Unknown
Altitude
Unknown
Speed
Unknown
Apparent Right ascension
Unknown
Apparent Declination
Unknown
Sunlit
N/A
Visualization observer readout
Local Sidereal Time
05:39:14
Azimuth
Unknown
Elevation
Unknown
Doppler factor
Unknown
Orbital elements
Apogee altitude
38,932.549 km
Perigee altitude
1,327.946 km
Semi-major axis
26,508.384 km
Eccentricity
0.7093
Inclination
64.7833°
RAAN
19.4586°
Arg. of periapsis
27.8632°
True anomaly
330.91702°
Mean anomaly
356.3846°
Eccentric anomaly
347.78835°
Mean motion
0.50288 °/min
Orbital period
715.87 mins
BSTAR
0
Loading maneuver chart data...
Computing Atmospheric mass density...
Loading historical data...
Loading historical data...
Loading historical data...
Loading historical data...
Loading historical data...
Loading historical data...
Loading historical data...

Documentation

Showing up to 5 results
|